Time,TemperatureF,DewpointF,PressureIn,WindDirection,WindDirectionDegrees,WindSpeedMPH,WindSpeedGustMPH,Humidity,HourlyPrecipIn,Conditions,Clouds,dailyrainin,SoftwareType,DateUTC
2013-03-05 00:00:00,33.6,35.0,29.65,North,360,11.2,13.5,100,0.00,,,0.14,Rainwise IP-100,2013-03-05 05:00:00,
2013-03-05 00:05:00,33.7,35.0,29.66,NNW,337,5.8,13.3,100,0.00,,,0.00,Rainwise IP-100,2013-03-05 05:05:00,
2013-03-05 00:10:00,33.7,35.0,29.65,NNE,22,4.2,17.7,100,0.00,,,0.00,Rainwise IP-100,2013-03-05 05:10:00,
2013-03-05 00:15:00,33.8,35.0,29.65,NNE,22,14.9,20.8,100,0.00,,,0.01,Rainwise IP-100,2013-03-05 05:15:00,
2013-03-05 00:20:00,33.8,35.0,29.66,NNE,22,5.8,18.4,100,0.06,,,0.01,Rainwise IP-100,2013-03-05 05:20:00,
2013-03-05 00:25:00,33.9,35.0,29.66,NNW,337,10.5,17.7,100,0.06,,,0.01,Rainwise IP-100,2013-03-05 05:25:00,
2013-03-05 00:30:00,33.9,35.0,29.66,NNE,22,12.4,14.2,100,0.00,,,0.01,Rainwise IP-100,2013-03-05 05:30:00,
2013-03-05 00:35:00,33.8,35.0,29.67,North,360,9.8,17.5,100,0.00,,,0.01,Rainwise IP-100,2013-03-05 05:35:00,
2013-03-05 00:40:00,33.8,35.0,29.67,WNW,292,4.9,17.5,100,0.00,,,0.01,Rainwise IP-100,2013-03-05 05:40:00,
2013-03-05 00:45:00,33.8,35.0,29.67,North,360,7.0,15.9,100,0.00,,,0.01,Rainwise IP-100,2013-03-05 05:45:00,
2013-03-05 00:50:00,33.8,35.0,29.67,North,360,5.4,15.9,100,0.00,,,0.01,Rainwise IP-100,2013-03-05 05:50:00,
2013-03-05 00:55:00,33.8,35.0,29.68,NNE,22,7.0,16.8,100,0.00,,,0.01,Rainwise IP-100,2013-03-05 05:55:00,
2013-03-05 01:00:00,33.8,35.0,29.68,NNW,337,5.4,16.8,100,0.00,,,0.01,Rainwise IP-100,2013-03-05 06:00:00,
2013-03-05 01:05:00,33.8,35.0,29.68,NNW,337,9.6,17.3,100,0.00,,,0.01,Rainwise IP-100,2013-03-05 06:05:00,
2013-03-05 01:10:00,33.9,35.0,29.68,NNE,22,13.5,15.6,100,0.00,,,0.01,Rainwise IP-100,2013-03-05 06:10:00,
2013-03-05 01:15:00,34.0,35.0,29.69,NNE,22,12.6,14.7,100,0.00,,,0.01,Rainwise IP-100,2013-03-05 06:15:00,
2013-03-05 01:20:00,34.1,35.0,29.69,NNE,22,5.1,18.0,100,0.00,,,0.01,Rainwise IP-100,2013-03-05 06:20:00,
2013-03-05 01:25:00,34.2,35.0,29.69,NNW,337,8.9,14.7,100,0.00,,,0.01,Rainwise IP-100,2013-03-05 06:25:00,
2013-03-05 01:26:00,34.2,35.0,29.69,NNE,22,5.4,14.0,100,0.00,,,0.01,Rainwise IP-100,2013-03-05 06:26:00,
2013-03-05 01:31:00,34.3,35.0,29.69,WNW,292,4.7,22.6,99,0.00,,,0.01,Rainwise IP-100,2013-03-05 06:31:00,
2013-03-05 01:36:00,34.3,35.0,29.69,NNW,337,12.4,14.2,99,0.00,,,0.01,Rainwise IP-100,2013-03-05 06:36:00,
2013-03-05 01:41:00,34.3,35.0,29.69,North,360,14.2,19.4,99,0.00,,,0.01,Rainwise IP-100,2013-03-05 06:41:00,
2013-03-05 01:46:00,34.3,35.0,29.70,NNW,337,5.8,16.8,99,0.00,,,0.01,Rainwise IP-100,2013-03-05 06:46:00,
2013-03-05 01:51:00,34.3,35.0,29.70,NNW,337,9.1,11.4,99,0.00,,,0.01,Rainwise IP-100,2013-03-05 06:51:00,
2013-03-05 01:56:00,34.3,35.0,29.70,NNE,22,5.4,15.6,99,0.00,,,0.01,Rainwise IP-100,2013-03-05 06:56:00,
2013-03-05 02:01:00,34.4,35.0,29.70,NNW,337,9.1,13.8,99,0.00,,,0.01,Rainwise IP-100,2013-03-05 07:01:00,
2013-03-05 02:06:00,34.4,35.0,29.71,North,360,4.2,16.6,99,0.00,,,0.01,Rainwise IP-100,2013-03-05 07:06:00,
2013-03-05 02:11:00,34.5,35.0,29.71,NNW,337,6.1,12.8,99,0.00,,,0.01,Rainwise IP-100,2013-03-05 07:11:00,
2013-03-05 02:16:00,34.5,35.0,29.71,NNE,22,15.2,15.6,99,0.00,,,0.01,Rainwise IP-100,2013-03-05 07:16:00,
2013-03-05 02:21:00,34.6,35.0,29.71,NNW,337,8.4,16.8,99,0.00,,,0.01,Rainwise IP-100,2013-03-05 07:21:00,
2013-03-05 02:26:00,34.5,35.0,29.71,North,360,4.4,14.9,99,0.00,,,0.01,Rainwise IP-100,2013-03-05 07:26:00,
2013-03-05 02:31:00,34.5,35.0,29.71,North,360,8.9,14.2,99,0.00,,,0.01,Rainwise IP-100,2013-03-05 07:31:00,
2013-03-05 02:36:00,34.6,35.0,29.71,North,360,9.1,13.5,99,0.00,,,0.01,Rainwise IP-100,2013-03-05 07:36:00,
2013-03-05 02:41:00,34.7,35.0,29.72,NE,45,11.9,12.6,98,0.00,,,0.01,Rainwise IP-100,2013-03-05 07:41:00,
2013-03-05 02:46:00,34.7,35.0,29.72,NNE,22,8.2,15.9,98,0.00,,,0.01,Rainwise IP-100,2013-03-05 07:46:00,
2013-03-05 02:51:00,34.7,35.0,29.72,NNW,337,6.1,11.0,98,0.00,,,0.01,Rainwise IP-100,2013-03-05 07:51:00,
2013-03-05 02:56:00,34.6,35.0,29.73,NNW,337,4.2,9.6,98,0.00,,,0.01,Rainwise IP-100,2013-03-05 07:56:00,
2013-03-05 03:00:00,34.6,35.0,29.73,NNW,337,9.1,16.8,98,0.00,,,0.01,Rainwise IP-100,2013-03-05 08:00:00,
2013-03-05 03:05:00,34.6,35.0,29.73,North,360,13.1,13.1,99,0.00,,,0.01,Rainwise IP-100,2013-03-05 08:05:00,
2013-03-05 03:10:00,34.6,35.0,29.73,NNW,337,6.8,14.7,98,0.00,,,0.01,Rainwise IP-100,2013-03-05 08:10:00,
2013-03-05 03:15:00,34.6,35.0,29.74,NNW,337,9.8,11.9,98,0.00,,,0.01,Rainwise IP-100,2013-03-05 08:15:00,
2013-03-05 03:20:00,34.6,35.0,29.74,NNE,22,4.0,12.8,98,0.00,,,0.01,Rainwise IP-100,2013-03-05 08:20:00,
2013-03-05 03:25:00,34.7,35.0,29.74,NNE,22,6.5,11.7,98,0.00,,,0.01,Rainwise IP-100,2013-03-05 08:25:00,
2013-03-05 03:30:00,34.7,35.0,29.74,NNW,337,6.3,14.7,98,0.00,,,0.01,Rainwise IP-100,2013-03-05 08:30:00,
2013-03-05 03:35:00,34.7,35.0,29.75,NNE,22,4.9,14.5,98,0.00,,,0.01,Rainwise IP-100,2013-03-05 08:35:00,
2013-03-05 03:40:00,34.7,35.0,29.75,North,360,8.6,14.0,98,0.00,,,0.01,Rainwise IP-100,2013-03-05 08:40:00,
2013-03-05 03:45:00,34.7,35.0,29.75,North,360,10.3,16.3,98,0.00,,,0.01,Rainwise IP-100,2013-03-05 08:45:00,
2013-03-05 03:50:00,34.7,35.0,29.75,NNE,22,11.4,16.6,98,0.00,,,0.01,Rainwise IP-100,2013-03-05 08:50:00,
2013-03-05 03:55:00,34.7,35.0,29.76,NNE,22,13.3,13.3,98,0.00,,,0.01,Rainwise IP-100,2013-03-05 08:55:00,
2013-03-05 04:00:00,34.7,35.0,29.76,NNW,337,8.6,15.4,98,0.00,,,0.01,Rainwise IP-100,2013-03-05 09:00:00,
2013-03-05 04:05:00,34.8,35.0,29.76,NNE,22,7.9,17.5,98,0.06,,,0.02,Rainwise IP-100,2013-03-05 09:05:00,
2013-03-05 04:10:00,34.8,35.0,29.76,North,360,8.9,15.4,98,0.06,,,0.02,Rainwise IP-100,2013-03-05 09:10:00,
2013-03-05 04:15:00,34.7,35.0,29.77,North,360,4.7,16.1,98,0.00,,,0.02,Rainwise IP-100,2013-03-05 09:15:00,
2013-03-05 04:20:00,34.7,35.0,29.77,North,360,6.1,14.0,98,0.00,,,0.02,Rainwise IP-100,2013-03-05 09:20:00,
2013-03-05 04:25:00,34.7,35.0,29.78,North,360,4.9,13.1,98,0.00,,,0.02,Rainwise IP-100,2013-03-05 09:25:00,
2013-03-05 04:30:00,34.7,35.0,29.77,NNW,337,10.3,16.3,98,0.00,,,0.02,Rainwise IP-100,2013-03-05 09:30:00,
2013-03-05 04:35:00,34.7,35.0,29.78,NNE,22,7.7,17.3,98,0.00,,,0.02,Rainwise IP-100,2013-03-05 09:35:00,
2013-03-05 04:40:00,34.7,35.0,29.79,NNE,22,12.1,13.1,98,0.00,,,0.02,Rainwise IP-100,2013-03-05 09:40:00,
2013-03-05 04:45:00,34.7,35.0,29.79,NNW,337,5.6,14.9,98,0.00,,,0.02,Rainwise IP-100,2013-03-05 09:45:00,
2013-03-05 04:50:00,34.7,35.0,29.79,North,360,11.2,13.8,98,0.00,,,0.02,Rainwise IP-100,2013-03-05 09:50:00,
2013-03-05 04:55:00,34.7,33.0,29.80,NNE,22,8.9,12.4,97,0.00,,,0.02,Rainwise IP-100,2013-03-05 09:55:00,
2013-03-05 05:00:00,34.7,33.0,29.80,NNW,337,2.6,11.9,97,0.00,,,0.02,Rainwise IP-100,2013-03-05 10:00:00,
2013-03-05 05:05:00,34.7,33.0,29.80,NNW,337,7.9,14.0,97,0.00,,,0.02,Rainwise IP-100,2013-03-05 10:05:00,
2013-03-05 05:10:00,34.7,33.0,29.80,NNW,337,7.2,12.8,97,0.00,,,0.02,Rainwise IP-100,2013-03-05 10:10:00,
2013-03-05 05:15:00,34.7,33.0,29.81,NE,45,7.9,16.8,97,0.00,,,0.02,Rainwise IP-100,2013-03-05 10:15:00,
2013-03-05 05:20:00,34.7,33.0,29.81,North,360,7.0,12.8,97,0.00,,,0.02,Rainwise IP-100,2013-03-05 10:20:00,
2013-03-05 05:25:00,34.7,33.0,29.82,NNW,337,7.0,13.5,97,0.00,,,0.02,Rainwise IP-100,2013-03-05 10:25:00,
2013-03-05 05:30:00,34.7,33.0,29.82,NNE,22,7.0,13.5,97,0.00,,,0.02,Rainwise IP-100,2013-03-05 10:30:00,
2013-03-05 05:35:00,34.7,33.0,29.82,NNE,22,8.4,18.2,97,0.00,,,0.02,Rainwise IP-100,2013-03-05 10:35:00,
2013-03-05 05:40:00,34.7,33.0,29.82,North,360,5.6,16.1,97,0.00,,,0.02,Rainwise IP-100,2013-03-05 10:40:00,
2013-03-05 05:45:00,34.6,33.0,29.83,NNE,22,10.0,13.5,97,0.00,,,0.02,Rainwise IP-100,2013-03-05 10:45:00,
2013-03-05 05:50:00,34.6,33.0,29.82,NNE,22,14.0,16.1,96,0.00,,,0.02,Rainwise IP-100,2013-03-05 10:50:00,
2013-03-05 05:55:00,34.7,33.0,29.83,North,360,8.4,16.3,96,0.00,,,0.02,Rainwise IP-100,2013-03-05 10:55:00,
2013-03-05 06:00:00,34.7,33.0,29.83,NNW,337,6.8,13.8,96,0.00,,,0.02,Rainwise IP-100,2013-03-05 11:00:00,
2013-03-05 06:05:00,34.7,33.0,29.83,NNW,337,7.5,15.4,96,0.00,,,0.02,Rainwise IP-100,2013-03-05 11:05:00,
2013-03-05 06:10:00,34.7,33.0,29.84,North,360,3.0,12.4,96,0.00,,,0.02,Rainwise IP-100,2013-03-05 11:10:00,
2013-03-05 06:15:00,34.7,33.0,29.84,NNE,22,10.3,12.1,96,0.00,,,0.02,Rainwise IP-100,2013-03-05 11:15:00,
2013-03-05 06:20:00,34.7,33.0,29.84,NNE,22,0.0,13.3,96,0.00,,,0.02,Rainwise IP-100,2013-03-05 11:20:00,
2013-03-05 06:25:00,34.7,33.0,29.84,NNW,337,5.1,11.4,96,0.00,,,0.02,Rainwise IP-100,2013-03-05 11:25:00,
2013-03-05 06:30:00,34.6,33.0,29.84,NNE,22,8.2,10.5,97,0.00,,,0.02,Rainwise IP-100,2013-03-05 11:30:00,
2013-03-05 06:35:00,34.6,33.0,29.84,NNW,337,9.1,15.2,97,0.00,,,0.02,Rainwise IP-100,2013-03-05 11:35:00,
2013-03-05 06:40:00,34.7,33.0,29.85,North,360,7.2,16.1,97,0.00,,,0.02,Rainwise IP-100,2013-03-05 11:40:00,
2013-03-05 06:45:00,34.6,33.0,29.85,NNE,22,4.4,13.3,97,0.00,,,0.02,Rainwise IP-100,2013-03-05 11:45:00,
2013-03-05 06:50:00,34.6,33.0,29.85,NNW,337,7.5,12.1,97,0.00,,,0.02,Rainwise IP-100,2013-03-05 11:50:00,
2013-03-05 06:55:00,34.7,33.0,29.86,NNW,337,9.1,12.6,97,0.00,,,0.02,Rainwise IP-100,2013-03-05 11:55:00,
2013-03-05 07:00:00,34.7,33.0,29.86,NNE,22,4.7,14.9,97,0.00,,,0.02,Rainwise IP-100,2013-03-05 12:00:00,
2013-03-05 07:05:00,34.7,33.0,29.86,NNW,337,11.0,13.5,97,0.00,,,0.02,Rainwise IP-100,2013-03-05 12:05:00,
2013-03-05 07:10:00,34.8,33.0,29.87,NNE,22,3.0,14.2,97,0.00,,,0.02,Rainwise IP-100,2013-03-05 12:10:00,
2013-03-05 07:15:00,34.9,33.0,29.87,North,360,6.1,15.6,97,0.00,,,0.02,Rainwise IP-100,2013-03-05 12:15:00,
2013-03-05 07:20:00,34.9,33.0,29.87,NNE,22,7.2,10.7,97,0.00,,,0.02,Rainwise IP-100,2013-03-05 12:20:00,
2013-03-05 07:25:00,34.9,33.0,29.88,NNE,22,9.6,11.9,97,0.00,,,0.02,Rainwise IP-100,2013-03-05 12:25:00,
2013-03-05 07:30:00,35.0,33.0,29.88,NNE,22,6.8,11.9,97,0.00,,,0.02,Rainwise IP-100,2013-03-05 12:30:00,
2013-03-05 07:35:00,35.1,33.0,29.88,North,360,6.3,11.9,97,0.00,,,0.02,Rainwise IP-100,2013-03-05 12:35:00,
2013-03-05 07:40:00,35.2,33.0,29.88,NNE,22,8.6,10.5,97,0.00,,,0.02,Rainwise IP-100,2013-03-05 12:40:00,
2013-03-05 07:45:00,35.3,33.0,29.88,NNE,22,8.9,10.3,96,0.00,,,0.02,Rainwise IP-100,2013-03-05 12:45:00,
2013-03-05 07:50:00,35.3,33.0,29.89,NNE,22,7.9,12.8,96,0.00,,,0.02,Rainwise IP-100,2013-03-05 12:50:00,
2013-03-05 07:55:00,35.4,33.0,29.88,NNE,22,13.3,15.9,96,0.00,,,0.02,Rainwise IP-100,2013-03-05 12:55:00,
2013-03-05 08:00:00,35.3,33.0,29.89,NNW,337,8.9,13.3,96,0.00,,,0.02,Rainwise IP-100,2013-03-05 13:00:00,
2013-03-05 08:05:00,35.4,33.0,29.89,NNE,22,7.2,13.5,96,0.00,,,0.02,Rainwise IP-100,2013-03-05 13:05:00,
2013-03-05 08:10:00,35.4,33.0,29.89,NNW,337,8.2,13.5,95,0.00,,,0.02,Rainwise IP-100,2013-03-05 13:10:00,
2013-03-05 08:15:00,35.4,33.0,29.89,NNW,337,8.6,14.5,95,0.00,,,0.02,Rainwise IP-100,2013-03-05 13:15:00,
2013-03-05 08:20:00,35.5,35.0,29.89,NNW,337,5.1,13.8,95,0.00,,,0.02,Rainwise IP-100,2013-03-05 13:20:00,
2013-03-05 08:25:00,35.5,35.0,29.89,NNE,22,10.5,16.6,95,0.00,,,0.02,Rainwise IP-100,2013-03-05 13:25:00,
2013-03-05 08:30:00,35.5,35.0,29.89,NNE,22,5.8,16.1,95,0.00,,,0.02,Rainwise IP-100,2013-03-05 13:30:00,
2013-03-05 08:35:00,35.4,33.0,29.90,NNE,22,4.9,15.4,95,0.00,,,0.02,Rainwise IP-100,2013-03-05 13:35:00,
2013-03-05 08:40:00,35.4,33.0,29.89,NNE,22,6.5,17.0,95,0.00,,,0.02,Rainwise IP-100,2013-03-05 13:40:00,
2013-03-05 08:45:00,35.3,33.0,29.90,WNW,292,3.3,14.0,95,0.00,,,0.02,Rainwise IP-100,2013-03-05 13:45:00,
2013-03-05 08:50:00,35.3,33.0,29.90,NNW,337,7.2,12.8,96,0.00,,,0.02,Rainwise IP-100,2013-03-05 13:50:00,
2013-03-05 08:55:00,35.3,33.0,29.90,NNE,22,11.7,11.7,96,0.00,,,0.02,Rainwise IP-100,2013-03-05 13:55:00,
2013-03-05 09:00:00,35.3,33.0,29.90,North,360,7.2,11.7,96,0.00,,,0.02,Rainwise IP-100,2013-03-05 14:00:00,
2013-03-05 09:05:00,35.3,33.0,29.91,NNW,337,3.5,17.5,96,0.00,,,0.02,Rainwise IP-100,2013-03-05 14:05:00,
2013-03-05 09:10:00,35.5,35.0,29.91,NNE,22,9.3,14.0,95,0.00,,,0.02,Rainwise IP-100,2013-03-05 14:10:00,
2013-03-05 09:15:00,35.6,35.0,29.91,NNE,22,9.8,12.8,95,0.00,,,0.02,Rainwise IP-100,2013-03-05 14:15:00,
2013-03-05 09:20:00,35.6,35.0,29.92,North,360,10.3,12.1,95,0.00,,,0.02,Rainwise IP-100,2013-03-05 14:20:00,
2013-03-05 09:25:00,35.7,35.0,29.91,NNE,22,7.2,14.0,95,0.00,,,0.02,Rainwise IP-100,2013-03-05 14:25:00,
2013-03-05 09:30:00,35.8,35.0,29.91,NNE,22,6.5,15.9,94,0.00,,,0.02,Rainwise IP-100,2013-03-05 14:30:00,
2013-03-05 09:35:00,36.1,35.0,29.91,North,360,6.1,12.1,94,0.00,,,0.02,Rainwise IP-100,2013-03-05 14:35:00,
2013-03-05 09:40:00,36.3,35.0,29.92,North,360,6.3,12.1,94,0.00,,,0.02,Rainwise IP-100,2013-03-05 14:40:00,
2013-03-05 09:45:00,36.6,35.0,29.92,NNW,337,8.9,12.1,93,0.00,,,0.02,Rainwise IP-100,2013-03-05 14:45:00,
2013-03-05 09:50:00,36.8,35.0,29.92,North,360,4.9,12.1,92,0.00,,,0.02,Rainwise IP-100,2013-03-05 14:50:00,
2013-03-05 09:55:00,36.9,35.0,29.92,North,360,4.7,12.8,91,0.00,,,0.02,Rainwise IP-100,2013-03-05 14:55:00,
2013-03-05 10:00:00,37.0,35.0,29.92,NNW,337,6.8,13.1,91,0.00,,,0.02,Rainwise IP-100,2013-03-05 15:00:00,
2013-03-05 10:05:00,37.2,35.0,29.92,NNE,22,11.7,13.8,91,0.00,,,0.02,Rainwise IP-100,2013-03-05 15:05:00,
2013-03-05 10:10:00,37.2,35.0,29.93,North,360,4.4,12.8,90,0.00,,,0.02,Rainwise IP-100,2013-03-05 15:10:00,
2013-03-05 10:15:00,37.3,35.0,29.93,NNE,22,8.2,11.4,90,0.00,,,0.02,Rainwise IP-100,2013-03-05 15:15:00,
2013-03-05 10:20:00,37.4,35.0,29.93,NNW,337,6.5,13.1,89,0.00,,,0.02,Rainwise IP-100,2013-03-05 15:20:00,
2013-03-05 10:25:00,37.5,35.0,29.93,NW,315,4.2,13.3,89,0.00,,,0.02,Rainwise IP-100,2013-03-05 15:25:00,
2013-03-05 10:30:00,37.8,35.0,29.93,North,360,4.4,8.2,88,0.00,,,0.02,Rainwise IP-100,2013-03-05 15:30:00,
2013-03-05 10:35:00,38.1,35.0,29.93,NNE,22,7.5,13.3,88,0.00,,,0.02,Rainwise IP-100,2013-03-05 15:35:00,
2013-03-05 10:40:00,38.1,35.0,29.94,NNW,337,9.3,12.4,87,0.00,,,0.02,Rainwise IP-100,2013-03-05 15:40:00,
2013-03-05 10:45:00,38.1,35.0,29.94,ENE,67,3.0,13.5,87,0.00,,,0.02,Rainwise IP-100,2013-03-05 15:45:00,
2013-03-05 10:50:00,38.0,35.0,29.93,NNE,22,5.1,15.2,87,0.00,,,0.02,Rainwise IP-100,2013-03-05 15:50:00,
2013-03-05 10:55:00,38.0,35.0,29.93,NNE,22,6.8,12.4,87,0.00,,,0.02,Rainwise IP-100,2013-03-05 15:55:00,
2013-03-05 11:00:00,38.0,35.0,29.94,NNW,337,3.3,15.2,88,0.00,,,0.02,Rainwise IP-100,2013-03-05 16:00:00,
2013-03-05 11:05:00,38.3,35.0,29.94,NNE,22,4.2,14.2,87,0.00,,,0.02,Rainwise IP-100,2013-03-05 16:05:00,
2013-03-05 11:10:00,38.9,36.0,29.94,NNE,22,6.3,12.6,87,0.00,,,0.02,Rainwise IP-100,2013-03-05 16:10:00,
2013-03-05 11:15:00,39.2,36.0,29.94,NW,315,3.0,11.7,86,0.00,,,0.02,Rainwise IP-100,2013-03-05 16:15:00,
2013-03-05 11:20:00,39.1,36.0,29.94,NNE,22,6.3,11.7,86,0.00,,,0.02,Rainwise IP-100,2013-03-05 16:20:00,
2013-03-05 11:25:00,39.2,35.0,29.94,NNW,337,4.9,13.5,85,0.00,,,0.02,Rainwise IP-100,2013-03-05 16:25:00,
2013-03-05 11:30:00,39.4,35.0,29.94,ENE,67,2.8,11.0,83,0.00,,,0.02,Rainwise IP-100,2013-03-05 16:30:00,
2013-03-05 11:35:00,40.1,36.0,29.94,NE,45,7.2,10.0,82,0.00,,,0.02,Rainwise IP-100,2013-03-05 16:35:00,
2013-03-05 11:40:00,40.4,35.0,29.94,NNE,22,6.1,15.4,81,0.00,,,0.02,Rainwise IP-100,2013-03-05 16:40:00,
2013-03-05 11:45:00,40.2,35.0,29.95,ENE,67,5.6,13.5,81,0.00,,,0.02,Rainwise IP-100,2013-03-05 16:45:00,
2013-03-05 11:50:00,39.7,35.0,29.95,ENE,67,4.9,14.5,81,0.00,,,0.02,Rainwise IP-100,2013-03-05 16:50:00,
2013-03-05 11:55:00,39.3,35.0,29.94,NNE,22,4.2,9.1,82,0.00,,,0.02,Rainwise IP-100,2013-03-05 16:55:00,
2013-03-05 12:00:00,39.3,35.0,29.95,NNW,337,5.6,9.8,83,0.00,,,0.02,Rainwise IP-100,2013-03-05 17:00:00,
2013-03-05 12:05:00,39.6,36.0,29.95,NNE,22,2.8,8.9,83,0.00,,,0.02,Rainwise IP-100,2013-03-05 17:05:00,
2013-03-05 12:10:00,40.0,36.0,29.95,North,360,8.6,15.9,83,0.00,,,0.02,Rainwise IP-100,2013-03-05 17:10:00,
2013-03-05 12:15:00,40.1,36.0,29.95,NNW,337,10.5,14.2,83,0.00,,,0.02,Rainwise IP-100,2013-03-05 17:15:00,
2013-03-05 12:20:00,40.1,36.0,29.95,NW,315,4.0,16.6,82,0.00,,,0.02,Rainwise IP-100,2013-03-05 17:20:00,
2013-03-05 12:25:00,40.3,36.0,29.95,North,360,5.4,11.2,83,0.00,,,0.02,Rainwise IP-100,2013-03-05 17:25:00,
2013-03-05 12:30:00,40.3,36.0,29.95,WNW,292,2.8,14.0,83,0.00,,,0.02,Rainwise IP-100,2013-03-05 17:30:00,
2013-03-05 12:35:00,40.5,36.0,29.95,NNE,22,5.6,13.1,82,0.00,,,0.02,Rainwise IP-100,2013-03-05 17:35:00,
2013-03-05 12:40:00,40.6,36.0,29.95,NE,45,10.5,16.3,80,0.00,,,0.02,Rainwise IP-100,2013-03-05 17:40:00,
2013-03-05 12:45:00,40.6,36.0,29.95,NNE,22,7.2,11.2,80,0.00,,,0.02,Rainwise IP-100,2013-03-05 17:45:00,
2013-03-05 12:50:00,40.9,36.0,29.95,NNW,337,4.2,11.0,80,0.00,,,0.02,Rainwise IP-100,2013-03-05 17:50:00,
2013-03-05 12:55:00,41.0,36.0,29.95,NE,45,3.7,9.6,80,0.00,,,0.02,Rainwise IP-100,2013-03-05 17:55:00,
2013-03-05 13:00:00,41.1,36.0,29.95,NNE,22,5.8,6.8,80,0.00,,,0.02,Rainwise IP-100,2013-03-05 18:00:00,
2013-03-05 13:05:00,41.6,36.0,29.96,NNW,337,4.7,9.1,79,0.00,,,0.02,Rainwise IP-100,2013-03-05 18:05:00,
2013-03-05 13:10:00,41.8,36.0,29.96,NNE,22,4.2,10.0,78,0.00,,,0.02,Rainwise IP-100,2013-03-05 18:10:00,
2013-03-05 13:15:00,41.4,36.0,29.96,NNE,22,3.3,10.7,79,0.00,,,0.02,Rainwise IP-100,2013-03-05 18:15:00,
2013-03-05 13:20:00,41.0,36.0,29.96,NE,45,7.9,12.1,80,0.00,,,0.02,Rainwise IP-100,2013-03-05 18:20:00,
2013-03-05 13:25:00,41.3,35.0,29.95,NNE,22,5.8,11.7,78,0.00,,,0.02,Rainwise IP-100,2013-03-05 18:25:00,
2013-03-05 13:30:00,41.5,36.0,29.96,NNE,22,7.2,12.4,78,0.00,,,0.02,Rainwise IP-100,2013-03-05 18:30:00,
2013-03-05 13:35:00,41.3,35.0,29.96,NE,45,5.6,13.3,78,0.00,,,0.02,Rainwise IP-100,2013-03-05 18:35:00,
2013-03-05 13:40:00,41.3,36.0,29.96,NNW,337,5.6,13.5,79,0.00,,,0.02,Rainwise IP-100,2013-03-05 18:40:00,
2013-03-05 13:45:00,41.8,37.0,29.96,NNE,22,4.2,10.7,80,0.00,,,0.02,Rainwise IP-100,2013-03-05 18:45:00,
2013-03-05 13:50:00,42.2,36.0,29.97,NNE,22,7.9,10.5,79,0.00,,,0.02,Rainwise IP-100,2013-03-05 18:50:00,
2013-03-05 13:55:00,41.7,37.0,29.97,NNE,22,4.2,12.6,80,0.00,,,0.02,Rainwise IP-100,2013-03-05 18:55:00,
2013-03-05 14:00:00,41.4,37.0,29.97,NNE,22,1.9,8.4,83,0.00,,,0.02,Rainwise IP-100,2013-03-05 19:00:00,
2013-03-05 14:05:00,42.2,37.0,29.97,NNW,337,5.1,7.7,82,0.00,,,0.02,Rainwise IP-100,2013-03-05 19:05:00,
2013-03-05 14:10:00,41.9,37.0,29.97,NW,315,5.6,10.7,81,0.00,,,0.02,Rainwise IP-100,2013-03-05 19:10:00,
2013-03-05 14:15:00,41.3,37.0,29.97,North,360,4.7,10.0,83,0.00,,,0.02,Rainwise IP-100,2013-03-05 19:15:00,
2013-03-05 14:20:00,41.1,37.0,29.98,NNE,22,8.6,19.8,84,0.00,,,0.02,Rainwise IP-100,2013-03-05 19:20:00,
2013-03-05 14:25:00,40.4,36.0,29.97,North,360,7.5,20.3,84,0.00,,,0.02,Rainwise IP-100,2013-03-05 19:25:00,
2013-03-05 14:30:00,39.7,36.0,29.98,NW,315,2.1,16.1,85,0.00,,,0.02,Rainwise IP-100,2013-03-05 19:30:00,
2013-03-05 14:35:00,39.6,37.0,29.98,NNW,337,6.8,11.0,86,0.00,,,0.02,Rainwise IP-100,2013-03-05 19:35:00,
2013-03-05 14:40:00,39.8,37.0,29.98,NNW,337,4.2,11.7,87,0.00,,,0.02,Rainwise IP-100,2013-03-05 19:40:00,
2013-03-05 14:45:00,39.9,37.0,29.97,North,360,10.0,13.5,86,0.00,,,0.02,Rainwise IP-100,2013-03-05 19:45:00,
2013-03-05 14:50:00,40.0,36.0,29.98,North,360,5.6,15.2,85,0.00,,,0.02,Rainwise IP-100,2013-03-05 19:50:00,
2013-03-05 14:55:00,40.1,36.0,29.98,NNW,337,6.8,12.6,84,0.00,,,0.02,Rainwise IP-100,2013-03-05 19:55:00,
2013-03-05 15:00:00,39.9,36.0,29.98,NNE,22,13.5,14.9,84,0.00,,,0.02,Rainwise IP-100,2013-03-05 20:00:00,
2013-03-05 15:05:00,39.9,36.0,29.98,NNE,22,6.1,14.2,85,0.00,,,0.02,Rainwise IP-100,2013-03-05 20:05:00,
2013-03-05 15:10:00,40.0,36.0,29.98,NNW,337,4.0,13.1,85,0.00,,,0.02,Rainwise IP-100,2013-03-05 20:10:00,
2013-03-05 15:15:00,39.8,36.0,29.98,NNW,337,7.7,10.0,85,0.00,,,0.02,Rainwise IP-100,2013-03-05 20:15:00,
2013-03-05 15:20:00,39.6,37.0,29.99,NW,315,4.7,11.9,86,0.00,,,0.02,Rainwise IP-100,2013-03-05 20:20:00,
2013-03-05 15:25:00,39.4,36.0,29.98,NNE,22,8.2,15.6,86,0.00,,,0.02,Rainwise IP-100,2013-03-05 20:25:00,
2013-03-05 15:30:00,39.4,36.0,29.99,NNW,337,7.2,14.5,86,0.00,,,0.02,Rainwise IP-100,2013-03-05 20:30:00,
2013-03-05 15:35:00,39.4,36.0,29.99,NNW,337,6.5,13.5,86,0.00,,,0.02,Rainwise IP-100,2013-03-05 20:35:00,
2013-03-05 15:40:00,39.3,36.0,30.00,NNE,22,4.7,14.2,87,0.00,,,0.02,Rainwise IP-100,2013-03-05 20:40:00,
2013-03-05 15:45:00,39.2,36.0,30.00,North,360,6.3,14.2,87,0.00,,,0.02,Rainwise IP-100,2013-03-05 20:45:00,
2013-03-05 15:50:00,39.2,36.0,30.00,NNE,22,1.4,13.1,88,0.00,,,0.02,Rainwise IP-100,2013-03-05 20:50:00,
2013-03-05 15:55:00,39.2,36.0,30.00,NNE,22,6.3,14.9,88,0.00,,,0.02,Rainwise IP-100,2013-03-05 20:55:00,
2013-03-05 16:00:00,39.1,36.0,30.00,WNW,292,4.0,12.8,88,0.00,,,0.02,Rainwise IP-100,2013-03-05 21:00:00,
2013-03-05 16:05:00,39.1,36.0,30.00,NNW,337,7.0,12.6,88,0.00,,,0.02,Rainwise IP-100,2013-03-05 21:05:00,
2013-03-05 16:10:00,39.0,36.0,30.01,NNW,337,6.1,10.0,89,0.00,,,0.02,Rainwise IP-100,2013-03-05 21:10:00,
2013-03-05 16:15:00,39.0,36.0,30.01,NNW,337,6.1,8.9,89,0.00,,,0.02,Rainwise IP-100,2013-03-05 21:15:00,
2013-03-05 16:20:00,39.0,36.0,30.01,NNE,22,4.7,9.6,89,0.00,,,0.02,Rainwise IP-100,2013-03-05 21:20:00,
2013-03-05 16:25:00,38.8,37.0,30.01,NNW,337,2.3,10.3,90,0.00,,,0.02,Rainwise IP-100,2013-03-05 21:25:00,
2013-03-05 16:30:00,38.7,37.0,30.01,NNW,337,3.7,12.4,90,0.00,,,0.02,Rainwise IP-100,2013-03-05 21:30:00,
2013-03-05 16:35:00,38.8,37.0,30.02,NNE,22,4.4,10.7,90,0.00,,,0.02,Rainwise IP-100,2013-03-05 21:35:00,
2013-03-05 16:40:00,38.8,37.0,30.02,North,360,4.4,13.1,90,0.00,,,0.02,Rainwise IP-100,2013-03-05 21:40:00,
2013-03-05 16:45:00,38.7,37.0,30.02,North,360,3.5,13.3,90,0.00,,,0.02,Rainwise IP-100,2013-03-05 21:45:00,
2013-03-05 16:50:00,38.5,37.0,30.02,NNE,22,10.5,12.4,90,0.00,,,0.02,Rainwise IP-100,2013-03-05 21:50:00,
2013-03-05 16:55:00,38.4,36.0,30.02,NNE,22,6.3,14.5,91,0.00,,,0.02,Rainwise IP-100,2013-03-05 21:55:00,
2013-03-05 17:00:00,38.4,36.0,30.02,NNW,337,4.0,12.1,91,0.00,,,0.02,Rainwise IP-100,2013-03-05 22:00:00,
2013-03-05 17:05:00,38.4,36.0,30.02,NNW,337,4.0,9.8,91,0.00,,,0.02,Rainwise IP-100,2013-03-05 22:05:00,
2013-03-05 17:10:00,38.3,36.0,30.02,North,360,5.4,10.0,91,0.00,,,0.02,Rainwise IP-100,2013-03-05 22:10:00,
2013-03-05 17:15:00,38.2,36.0,30.03,NNE,22,5.1,9.8,91,0.00,,,0.02,Rainwise IP-100,2013-03-05 22:15:00,
2013-03-05 17:20:00,37.9,36.0,30.03,NNW,337,10.5,11.9,92,0.00,,,0.02,Rainwise IP-100,2013-03-05 22:20:00,
2013-03-05 17:25:00,37.8,36.0,30.03,NNW,337,5.8,14.5,92,0.00,,,0.02,Rainwise IP-100,2013-03-05 22:25:00,
2013-03-05 17:30:00,37.9,36.0,30.03,North,360,4.2,13.5,93,0.00,,,0.02,Rainwise IP-100,2013-03-05 22:30:00,
2013-03-05 17:35:00,37.9,36.0,30.04,North,360,8.2,10.0,93,0.00,,,0.02,Rainwise IP-100,2013-03-05 22:35:00,
2013-03-05 17:40:00,37.8,36.0,30.04,NNE,22,6.8,10.0,93,0.00,,,0.02,Rainwise IP-100,2013-03-05 22:40:00,
2013-03-05 17:45:00,37.7,36.0,30.04,NNW,337,6.1,11.0,93,0.00,,,0.02,Rainwise IP-100,2013-03-05 22:45:00,
2013-03-05 17:50:00,37.6,36.0,30.04,NNW,337,5.6,11.2,93,0.00,,,0.02,Rainwise IP-100,2013-03-05 22:50:00,
2013-03-05 17:55:00,37.5,37.0,30.05,NNE,22,7.0,8.4,94,0.00,,,0.02,Rainwise IP-100,2013-03-05 22:55:00,
2013-03-05 18:00:00,37.4,36.0,30.04,NNE,22,8.9,16.6,94,0.00,,,0.02,Rainwise IP-100,2013-03-05 23:00:00,
2013-03-05 18:05:00,37.5,37.0,30.05,NNE,22,5.8,12.4,94,0.00,,,0.02,Rainwise IP-100,2013-03-05 23:05:00,
2013-03-05 18:10:00,37.6,36.0,30.05,NNE,22,5.8,14.0,93,0.00,,,0.02,Rainwise IP-100,2013-03-05 23:10:00,
2013-03-05 18:15:00,37.5,36.0,30.05,ENE,67,4.9,12.1,92,0.00,,,0.02,Rainwise IP-100,2013-03-05 23:15:00,
2013-03-05 18:20:00,37.4,35.0,30.05,ENE,67,8.4,12.6,92,0.00,,,0.02,Rainwise IP-100,2013-03-05 23:20:00,
2013-03-05 18:25:00,37.4,35.0,30.06,NNE,22,4.2,15.4,92,0.00,,,0.02,Rainwise IP-100,2013-03-05 23:25:00,
2013-03-05 18:30:00,37.3,35.0,30.06,North,360,7.7,17.0,91,0.00,,,0.02,Rainwise IP-100,2013-03-05 23:30:00,
2013-03-05 18:35:00,37.2,35.0,30.06,North,360,7.9,18.9,91,0.00,,,0.02,Rainwise IP-100,2013-03-05 23:35:00,
2013-03-05 18:40:00,37.0,35.0,30.06,North,360,8.4,18.2,91,0.00,,,0.02,Rainwise IP-100,2013-03-05 23:40:00,
2013-03-05 18:45:00,37.0,35.0,30.06,NNE,22,7.5,15.9,91,0.00,,,0.02,Rainwise IP-100,2013-03-05 23:45:00,
2013-03-05 18:50:00,36.9,35.0,30.06,NNW,337,3.0,13.5,91,0.00,,,0.02,Rainwise IP-100,2013-03-05 23:50:00,
2013-03-05 18:55:00,36.7,35.0,30.06,NNW,337,6.1,12.4,91,0.00,,,0.02,Rainwise IP-100,2013-03-05 23:55:00,
2013-03-05 19:00:00,36.6,35.0,30.07,North,360,5.4,11.7,91,0.00,,,0.02,Rainwise IP-100,2013-03-06 00:00:00,
2013-03-05 19:05:00,36.5,35.0,30.07,NNW,337,4.7,11.4,91,0.00,,,0.02,Rainwise IP-100,2013-03-06 00:05:00,
2013-03-05 19:10:00,36.5,35.0,30.07,North,360,6.5,10.3,91,0.00,,,0.02,Rainwise IP-100,2013-03-06 00:10:00,
2013-03-05 19:15:00,36.5,35.0,30.07,NNE,22,7.7,11.7,91,0.00,,,0.02,Rainwise IP-100,2013-03-06 00:15:00,
2013-03-05 19:20:00,36.4,33.0,30.07,NNE,22,11.4,12.1,91,0.00,,,0.02,Rainwise IP-100,2013-03-06 00:20:00,
2013-03-05 19:25:00,36.2,33.0,30.08,NNE,22,5.1,13.1,92,0.00,,,0.02,Rainwise IP-100,2013-03-06 00:25:00,
2013-03-05 19:30:00,36.0,33.0,30.08,NNE,22,11.0,11.0,92,0.00,,,0.02,Rainwise IP-100,2013-03-06 00:30:00,
2013-03-05 19:35:00,36.0,35.0,30.08,NNW,337,3.7,11.9,93,0.00,,,0.02,Rainwise IP-100,2013-03-06 00:35:00,
2013-03-05 19:40:00,35.8,35.0,30.08,NNE,22,3.7,9.6,93,0.00,,,0.02,Rainwise IP-100,2013-03-06 00:40:00,
2013-03-05 19:45:00,35.8,35.0,30.08,NNE,22,5.8,8.4,93,0.00,,,0.02,Rainwise IP-100,2013-03-06 00:45:00,
2013-03-05 19:50:00,35.7,35.0,30.08,NNW,337,4.0,11.0,94,0.00,,,0.02,Rainwise IP-100,2013-03-06 00:50:00,
2013-03-05 19:55:00,35.6,35.0,30.08,NNE,22,6.1,9.8,94,0.00,,,0.02,Rainwise IP-100,2013-03-06 00:55:00,
2013-03-05 20:00:00,35.6,35.0,30.09,NNE,22,4.0,9.6,94,0.00,,,0.02,Rainwise IP-100,2013-03-06 01:00:00,
2013-03-05 20:05:00,35.6,35.0,30.09,NNW,337,4.0,14.7,94,0.00,,,0.02,Rainwise IP-100,2013-03-06 01:05:00,
2013-03-05 20:10:00,35.6,35.0,30.09,NE,45,8.2,15.4,94,0.00,,,0.02,Rainwise IP-100,2013-03-06 01:10:00,
2013-03-05 20:15:00,35.5,35.0,30.10,NNE,22,5.8,12.4,94,0.00,,,0.02,Rainwise IP-100,2013-03-06 01:15:00,
2013-03-05 20:20:00,35.5,35.0,30.10,North,360,3.3,9.6,94,0.00,,,0.02,Rainwise IP-100,2013-03-06 01:20:00,
2013-03-05 20:25:00,35.5,35.0,30.10,NNW,337,4.2,10.3,95,0.00,,,0.02,Rainwise IP-100,2013-03-06 01:25:00,
2013-03-05 20:30:00,35.5,35.0,30.10,NNW,337,3.0,11.0,95,0.00,,,0.02,Rainwise IP-100,2013-03-06 01:30:00,
2013-03-05 20:35:00,35.4,33.0,30.10,ENE,67,4.4,11.4,95,0.00,,,0.02,Rainwise IP-100,2013-03-06 01:35:00,
2013-03-05 20:40:00,35.4,33.0,30.10,NNE,22,3.0,11.0,95,0.00,,,0.02,Rainwise IP-100,2013-03-06 01:40:00,
2013-03-05 20:45:00,35.4,33.0,30.10,NNE,22,5.4,11.0,95,0.00,,,0.02,Rainwise IP-100,2013-03-06 01:45:00,
2013-03-05 20:51:00,35.3,33.0,30.10,ENE,67,7.2,11.0,95,0.00,,,0.02,Rainwise IP-100,2013-03-06 01:51:00,
2013-03-05 20:56:00,35.2,33.0,30.10,NNE,22,7.0,13.5,95,0.00,,,0.02,Rainwise IP-100,2013-03-06 01:56:00,
2013-03-05 21:01:00,35.2,33.0,30.10,NE,45,7.0,9.6,95,0.00,,,0.02,Rainwise IP-100,2013-03-06 02:01:00,
2013-03-05 21:06:00,35.1,33.0,30.11,North,360,5.4,10.7,95,0.00,,,0.02,Rainwise IP-100,2013-03-06 02:06:00,
2013-03-05 21:11:00,35.0,33.0,30.10,NNE,22,5.4,14.5,95,0.00,,,0.02,Rainwise IP-100,2013-03-06 02:11:00,
2013-03-05 21:16:00,35.0,33.0,30.10,NNE,22,13.1,14.0,95,0.00,,,0.02,Rainwise IP-100,2013-03-06 02:16:00,
2013-03-05 21:21:00,35.0,33.0,30.10,NNE,22,14.0,18.2,95,0.00,,,0.02,Rainwise IP-100,2013-03-06 02:21:00,
2013-03-05 21:26:00,35.0,33.0,30.11,NNE,22,4.2,14.0,95,0.00,,,0.02,Rainwise IP-100,2013-03-06 02:26:00,
2013-03-05 21:31:00,34.9,33.0,30.11,NE,45,5.6,11.7,95,0.00,,,0.02,Rainwise IP-100,2013-03-06 02:31:00,
2013-03-05 21:36:00,34.8,33.0,30.11,NNE,22,6.8,12.1,95,0.00,,,0.02,Rainwise IP-100,2013-03-06 02:36:00,
2013-03-05 21:41:00,34.7,33.0,30.11,ENE,67,6.5,14.0,96,0.00,,,0.02,Rainwise IP-100,2013-03-06 02:41:00,
2013-03-05 21:46:00,34.6,33.0,30.11,NNE,22,5.6,12.4,96,0.00,,,0.02,Rainwise IP-100,2013-03-06 02:46:00,
2013-03-05 21:51:00,34.5,33.0,30.12,East,90,3.3,13.5,96,0.00,,,0.02,Rainwise IP-100,2013-03-06 02:51:00,
2013-03-05 21:56:00,34.4,33.0,30.12,NNE,22,2.6,12.4,97,0.00,,,0.02,Rainwise IP-100,2013-03-06 02:56:00,
2013-03-05 22:01:00,34.4,33.0,30.11,NE,45,3.7,9.3,97,0.00,,,0.02,Rainwise IP-100,2013-03-06 03:01:00,
2013-03-05 22:06:00,34.4,33.0,30.12,NNE,22,9.6,15.2,97,0.00,,,0.02,Rainwise IP-100,2013-03-06 03:06:00,
2013-03-05 22:11:00,34.4,33.0,30.12,ENE,67,6.8,11.9,97,0.00,,,0.02,Rainwise IP-100,2013-03-06 03:11:00,
2013-03-05 22:16:00,34.5,33.0,30.13,ENE,67,5.4,11.9,97,0.00,,,0.02,Rainwise IP-100,2013-03-06 03:16:00,
2013-03-05 22:21:00,34.5,33.0,30.13,NE,45,6.1,13.5,97,0.00,,,0.02,Rainwise IP-100,2013-03-06 03:21:00,
2013-03-05 22:26:00,34.5,33.0,30.13,NNE,22,5.4,14.5,97,0.00,,,0.02,Rainwise IP-100,2013-03-06 03:26:00,
2013-03-05 22:31:00,34.5,33.0,30.13,ENE,67,10.0,12.8,97,0.00,,,0.02,Rainwise IP-100,2013-03-06 03:31:00,
2013-03-05 22:36:00,34.6,33.0,30.13,ENE,67,9.3,14.2,97,0.00,,,0.02,Rainwise IP-100,2013-03-06 03:36:00,
2013-03-05 22:41:00,34.6,33.0,30.13,NE,45,4.0,15.2,97,0.00,,,0.02,Rainwise IP-100,2013-03-06 03:41:00,
2013-03-05 22:46:00,34.5,33.0,30.14,ENE,67,8.9,15.6,97,0.00,,,0.02,Rainwise IP-100,2013-03-06 03:46:00,
2013-03-05 22:51:00,34.5,33.0,30.14,ENE,67,16.1,16.1,97,0.00,,,0.02,Rainwise IP-100,2013-03-06 03:51:00,
2013-03-05 22:56:00,34.5,33.0,30.13,ENE,67,10.0,16.1,97,0.00,,,0.02,Rainwise IP-100,2013-03-06 03:56:00,
2013-03-05 23:01:00,34.6,33.0,30.14,ENE,67,7.7,12.4,97,0.00,,,0.02,Rainwise IP-100,2013-03-06 04:01:00,
2013-03-05 23:06:00,34.6,33.0,30.14,East,90,9.6,13.3,97,0.00,,,0.02,Rainwise IP-100,2013-03-06 04:06:00,
2013-03-05 23:11:00,34.6,33.0,30.14,ENE,67,10.3,16.1,97,0.00,,,0.02,Rainwise IP-100,2013-03-06 04:11:00,
2013-03-05 23:16:00,34.6,33.0,30.14,ENE,67,9.6,14.7,97,0.00,,,0.02,Rainwise IP-100,2013-03-06 04:16:00,
2013-03-05 23:21:00,34.7,33.0,30.14,NNE,22,8.9,13.8,97,0.00,,,0.02,Rainwise IP-100,2013-03-06 04:21:00,
2013-03-05 23:26:00,34.7,33.0,30.15,ENE,67,6.3,15.4,97,0.00,,,0.02,Rainwise IP-100,2013-03-06 04:26:00,
2013-03-05 23:31:00,34.7,33.0,30.14,ENE,67,8.2,16.1,97,0.00,,,0.02,Rainwise IP-100,2013-03-06 04:31:00,
2013-03-05 23:36:00,34.6,33.0,30.15,NNE,22,4.7,13.1,97,0.00,,,0.02,Rainwise IP-100,2013-03-06 04:36:00,
2013-03-05 23:41:00,34.6,33.0,30.15,ENE,67,8.4,13.8,97,0.00,,,0.02,Rainwise IP-100,2013-03-06 04:41:00,
2013-03-05 23:46:00,34.7,35.0,30.15,NE,45,6.8,14.7,98,0.00,,,0.02,Rainwise IP-100,2013-03-06 04:46:00,
2013-03-05 23:51:00,34.7,33.0,30.15,ENE,67,9.8,14.2,97,0.00,,,0.02,Rainwise IP-100,2013-03-06 04:51:00,
2013-03-05 23:56:00,34.7,33.0,30.16,NE,45,9.3,17.3,97,0.00,,,0.02,Rainwise IP-100,2013-03-06 04:56:00,